This is the latest recevied weather packets stored in our database for station/object VA3ZFM-10. If no packets are shown the sender has not sent any weather packets the latest 10 day(s).
| Time | Temp. | Humidity | Pressure | Rain* | Wind** | Luminosity | Snow |
|---|---|---|---|---|---|---|---|
| 1778274161 | 10° C | 34% | 1007.3 hPa | 0 mm | - | - | - |
| 1778273858 | 10.56° C | 34% | 1007.6 hPa | 0 mm | - | - | - |
| 1778273554 | 10.56° C | 34% | 1007.4 hPa | 0 mm | - | - | - |
| 1778273251 | 11.67° C | 32% | 1007.3 hPa | 0 mm | - | - | - |
| 1778272947 | 11.11° C | 32% | 1007.5 hPa | 0 mm | - | - | - |
| 1778272643 | 10.56° C | 33% | 1007.3 hPa | 0 mm | - | - | - |
| 1778272340 | 11.67° C | 33% | 1007.6 hPa | 0 mm | - | - | - |
| 1778272035 | 10.56° C | 35% | 1007.7 hPa | 0 mm | - | - | - |
| 1778271733 | 10.56° C | 37% | 1007.6 hPa | 0 mm | - | - | - |
| 1778271430 | 10° C | 36% | 1007.7 hPa | 0 mm | - | - | - |
| 1778271126 | 10.56° C | 36% | 1007.8 hPa | 0 mm | - | - | - |
| 1778270823 | 10.56° C | 37% | 1007.8 hPa | 0 mm | - | - | - |
| 1778270519 | 10.56° C | 36% | 1007.9 hPa | 0 mm | - | - | - |
| 1778270216 | 10° C | 38% | 1008.2 hPa | 0 mm | - | - | - |
| 1778269912 | 9.44° C | 39% | 1008.1 hPa | 0 mm | - | - | - |
| 1778269609 | 9.44° C | 38% | 1008.1 hPa | 0 mm | - | - | - |
| 1778269306 | 10° C | 38% | 1008.1 hPa | 0 mm | - | - | - |
| 1778269003 | 10° C | 39% | 1008 hPa | 0 mm | - | - | - |
| 1778268700 | 10° C | 38% | 1008.2 hPa | 0 mm | - | - | - |
| 1778268396 | 10° C | 37% | 1008.1 hPa | 0 mm | - | - | - |
| 1778268094 | 10.56° C | 37% | 1008.2 hPa | 0 mm | - | - | - |
| 1778267790 | 10.56° C | 36% | 1008.3 hPa | 0 mm | - | - | - |
| 1778267487 | 10.56° C | 35% | 1008.1 hPa | 0 mm | - | - | - |
| 1778267185 | 10.56° C | 37% | 1008.2 hPa | 0 mm | - | - | - |
| 1778266881 | 10° C | 37% | 1008.2 hPa | 0 mm | - | - | - |
* Rain latest hour (hover to see other rain measurements)
** Current wind speed in m/s (hover to see current wind gust speed)